Content
SEND FEEDBACK

Daily
Averages
Monthly
Summary
United States of America

BLAND, VIRGINIA


Home > North America > United States > Virginia
Elevation: 200 feet     Latitude: 37 06N     Longitude: 081 07W

WEATHER
 
SELECT A DAY
Number of Records: 212,419;   Date Range: 1/1/95 - 11/26/14
 
SHARE

PRINT THIS DATA

[ ← Previous Day ]
WEATHER ALMANAC - JULY 13, 2014
[ Next Day → ]
[ °C ]   °F
Weather ElementAverageHighLow
Temperature77.8 °F86 °F (4:52 pm)72 °F (7:52 pm)
Dewpoint63 °F66 °F (6:52 pm)62.1 °F (9:52 am)
Humidity61 %73 % (12:52 am)44 % (12:52 pm)
Barometer30.06 in30.23 in (12:03 pm)29.99 in (4:52 am)
Wind Speed8.2 mph16.1 mph (5:59 pm)
Wind Gust23 mph (11:00 am)
Weather ElementAverage
Visibility10 mi
Wind DirectionWSW (249.6 °)

Weather ElementTotal
Precipitation---
Cooling Degree Days14 (Base 65)
Growing Degree Days29 (Base 50)
Averaged from 25 records on July 13, 2014
WEATHER CONDITIONS BREAKOUT
WIND DIRECTION BREAKOUT
WEATHER BY HOUR - JULY 13, 2014
[ °C ]   °F
Local TimeTemperatureDewpointHumidityBarometerVisibilityWind DirectionWind SpeedGust SpeedPrecipitationEventsConditions
12:52 AM72.0 °F63.0 °F73 %30.12 in10.0 miSW (220°)4.6 mphPartly Cloudy
1:52 AM72.0 °F62.1 °F71 %30.09 in10.0 miSW (220°)4.6 mphScattered Clouds
2:52 AM72.0 °F62.1 °F71 %30.09 in10.0 miSW (230°)3.5 mphOvercast
3:52 AM73.0 °F62.1 °F68 %30.09 in10.0 miWest (260°)4.6 mphOvercast
4:52 AM72.0 °F62.1 °F71 %30.07 in10.0 miSW (230°)3.5 mphOvercast
5:52 AM73.0 °F62.1 °F68 %30.07 in10.0 miSW (230°)5.8 mphMostly Cloudy
6:52 AM73.0 °F62.1 °F68 %30.09 in10.0 miWest (280°)5.8 mphOvercast
7:52 AM73.0 °F63.0 °F71 %30.11 in10.0 miWest (260°)5.8 mphOvercast
8:52 AM75.0 °F64.0 °F69 %30.11 in10.0 miWest (260°)8.1 mphMostly Cloudy
9:52 AM79.0 °F66.0 °F64 %30.11 in10.0 miWSW (240°)11.5 mphPartly Cloudy
10:20 AM78.1 °F64.9 °F64 %30.23 in10.0 miWest (270°)11.5 mphMostly Cloudy
10:52 AM79.0 °F64.9 °F62 %30.10 in10.0 miWest (260°)10.4 mphMostly Cloudy
11:52 AM82.9 °F64.0 °F53 %30.09 in10.0 miWest (260°)15.0 mphPartly Cloudy
12:52 PM84.0 °F62.1 °F47 %30.07 in10.0 miWSW (250°)12.7 mph19.6 mphScattered Clouds
1:52 PM82.0 °F62.1 °F51 %30.06 in10.0 miWNW (290°)6.9 mphMostly Cloudy
2:52 PM82.9 °F62.1 °F49 %30.04 in10.0 miWest (260°)8.1 mphOvercast
3:52 PM86.0 °F62.1 °F44 %30.00 in10.0 miWest (260°)12.7 mph16.1 mphClear
4:52 PM84.9 °F62.1 °F46 %29.99 in10.0 miWest (270°)16.1 mph23.0 mphMostly Cloudy
5:52 PM84.9 °F63.0 °F48 %29.99 in10.0 miWSW (250°)11.5 mphMostly Cloudy
6:52 PM82.9 °F64.0 °F53 %30.00 in10.0 miWest (270°)9.2 mphMostly Cloudy
7:52 PM80.1 °F63.0 °F56 %30.00 in10.0 miWest (260°)4.6 mphPartly Cloudy
8:52 PM78.1 °F63.0 °F60 %30.00 in10.0 miSSW (200°)4.6 mphOvercast
9:52 PM75.9 °F63.0 °F64 %29.99 in10.0 miSW (230°)6.9 mphClear
10:52 PM75.0 °F63.0 °F66 %29.99 in10.0 miWSW (240°)9.2 mphClear
11:52 PM73.9 °F63.0 °F68 %29.99 in10.0 miWSW (240°)6.9 mphClear
Hourly data recorded from KBLF, located miles away from Bland, Virginia







STORIES FROM OUR PARTNERS